Moose, Wyoming, United States (83012)
Lat: 43.66N, Lon: 110.72W
Wx Zone: WYZ013
Local Info
Past Weather Observations for Friday, July 31, 2015

NOTE: This archive is for the closest National Weather Service station to Moose. Information may differ from the station used for current weather conditions.

Click here for Long-term Archive

Time Weather Temperature Dewpoint Humidity Pressure Winds Precip Visibility
18:52
Clear
77°F / 25°C 34°F / 1°C 21% 30.3 in
(1026 mb)
W 6.9 mph
(W 11 kph)
- 10SM
17:51
Clear
81°F / 27°C 30°F / -1°C 16% 30.3 in
(1026 mb)
W 9.2 mph
(W 15 kph)
- 10SM
16:51
Clear
81°F / 27°C 34°F / 1°C 18% 30.3 in
(1026 mb)
SW 9.2 mph
(SW 15 kph)
- 10SM
15:51
Clear
82°F / 28°C 30°F / -1°C 15% 30.33 in
(1027 mb)
Calm - 10SM
14:51
Clear
82°F / 28°C 32°F / 0°C 16% 30.33 in
(1027 mb)
SSW 9.2 mph
(SSW 15 kph)
- 10SM
13:51
Clear
81°F / 27°C 30°F / -1°C 16% 30.36 in
(1028 mb)
Calm - 10SM
12:51
Clear
79°F / 26°C 28°F / -2°C 16% 30.36 in
(1028 mb)
Calm - 10SM
11:51
Clear
75°F / 24°C 36°F / 2°C 24% 30.39 in
(1029 mb)
Calm - 10SM
10:51
Clear
70°F / 21°C 37°F / 3°C 31% 30.42 in
(1030 mb)
Calm - 10SM
09:51
Clear
64°F / 18°C 39°F / 4°C 40% 30.45 in
(1031 mb)
Calm - 10SM
08:51
Clear
61°F / 16°C 37°F / 3°C 42% 30.45 in
(1031 mb)
Calm - 10SM
08:20
Clear
59°F / 15°C 37°F / 3°C 45% 30.45 in
(1031 mb)
Calm - 10SM
06:59
Clear
48°F / 9°C 37°F / 3°C 66% 30.48 in
(1032 mb)
Calm - 10SM
05:54
Clear
43°F / 6°C 36°F / 2°C 76% 30.45 in
(1031 mb)
Calm - 10SM
05:35
Clear
43°F / 6°C 36°F / 2°C 76% 30.45 in
(1031 mb)
NNE 3.5 mph
(NNE 6 kph)
- 10SM
05:15
Clear
43°F / 6°C 36°F / 2°C 76% 30.45 in
(1031 mb)
NE 5.8 mph
(NE 9 kph)
- 10SM
04:55
Clear
43°F / 6°C 36°F / 2°C 76% 30.45 in
(1031 mb)
NNW 3.5 mph
(NNW 6 kph)
- 10SM
04:35
Clear
45°F / 7°C 36°F / 2°C 71% 30.42 in
(1030 mb)
Calm - 10SM
04:15
Clear
43°F / 6°C 36°F / 2°C 76% 30.42 in
(1030 mb)
NNE 3.5 mph
(NNE 6 kph)
- 10SM
03:55
Clear
45°F / 7°C 36°F / 2°C 71% 30.45 in
(1031 mb)
NE 6.9 mph
(NE 11 kph)
- 10SM
03:35
Clear
45°F / 7°C 36°F / 2°C 71% 30.45 in
(1031 mb)
NNE 6.9 mph
(NNE 11 kph)
- 10SM
03:15
Clear
46°F / 8°C 36°F / 2°C 66% 30.45 in
(1031 mb)
NNE 5.8 mph
(NNE 9 kph)
- 10SM
02:55
Clear
45°F / 7°C 36°F / 2°C 71% 30.45 in
(1031 mb)
N 5.8 mph
(N 9 kph)
- 10SM
02:35
Clear
46°F / 8°C 37°F / 3°C 71% 30.42 in
(1030 mb)
N 4.6 mph
(N 7 kph)
- 10SM
02:15
Clear
45°F / 7°C 37°F / 3°C 76% 30.42 in
(1030 mb)
N 5.8 mph
(N 9 kph)
- 10SM
01:55
Clear
46°F / 8°C 37°F / 3°C 71% 30.42 in
(1030 mb)
N 8.1 mph
(N 13 kph)
- 10SM
01:35
Clear
48°F / 9°C 37°F / 3°C 66% 30.42 in
(1030 mb)
NNE 3.5 mph
(NNE 6 kph)
- 10SM
01:15
Clear
46°F / 8°C 37°F / 3°C 71% 30.45 in
(1031 mb)
N 4.6 mph
(N 7 kph)
- 10SM
00:55
Clear
46°F / 8°C 37°F / 3°C 71% 30.42 in
(1030 mb)
NE 3.5 mph
(NE 6 kph)
- 10SM
00:35
Clear
46°F / 8°C 37°F / 3°C 71% 30.42 in
(1030 mb)
NE 5.8 mph
(NE 9 kph)
- 10SM
00:15
Clear
50°F / 10°C 37°F / 3°C 62% 30.42 in
(1030 mb)
N 5.8 mph
(N 9 kph)
- 10SM
Time Weather Temperature Dewpoint Humidity Pressure Winds Precip Visibility


Weather for websites

WeatherForYou.com, LLC is not responsible for any damages or problems caused by this service. Current weather conditions are obtained from the closest station including government and personal stations which may have varying degrees of accuracy. Weather forecasts are derived from the NOAA NDFD. Like all things, this site belongs to Jesus Christ... He just trusts us to maintain it. If you have any questions or comments email webmaster@weatherforyou.com

Copyright © 2015, WeatherForYou.com LLC. All rights reserved.